View from above orbital plane
|
View from above satellite
|
Ground track
|
The orbit data is extracted from the following two-line orbital elements,
1 25861U 99039B 21055.77149836 .00000072 00000-0 17350-4 0 9999
2 25861 98.2095 68.9236 0016864 69.4438 103.9870 14.78622200164900
Epoch (UTC): | 24 February 2021 18:30:57 |
Eccentricity: | 0.0016864 |
inclination: | 98.2095° |
perigee height: | 622 km |
apogee height: | 645 km |
right ascension of ascending node: | 68.9236° |
argument of perigee: | 69.4438° |
revolutions per day: | 14.78622200 |
mean anomaly at epoch: | 103.9870° |
orbit number at epoch: | 16490 |
The dashed part of the orbit path shows where the satellite is in the earth's shadow,
|
|